Date String (YYYY-MM-DD hh:mm:ss) UTC,Instrument flags,absolute air pressure of the measurement (hPa),sample flow rate (lpm),inlet stack bypass flow (lpm),air temperature of the measurement (°C),ambient temperature measured by the external sensor (°C),aerosol sample conditioner tube jacket temperature (°C),OPC LED temperature (°C),internal box temperature (°C),relative humidity of the measurement (%),span deviation,mass concentration of particles derived from Lorenz-Mie calculation of OPC scattering (μg/m³),mass concentration of particles derived from Lorenz-Mie calculation of OPC scattering (μg/m³),mass concentration of particles derived from Lorenz-Mie calculation of OPC scattering (μg/m³)
DateTimeUTC,F1_M11,P_M11,Q1_M11,Q2_M11,T1_M11,T2_M11,T3_M11,T4_M11,T5_M11,U1_M11,ZSPAN_M11,X2_M11,X0_M11,X1_M11
2023-08-14 14:00:00,SystemResetWarning,0841.8,5.00,000.00,030.0,028.7,000.0,038.5,031.5,20.2,0000.0,0003.71,0007.39,0003.34
2023-08-14 14:01:00,SystemResetWarning,0841.8,4.99,000.00,030.0,028.7,000.0,038.5,031.6,20.0,0000.0,0003.71,0007.49,0003.33
2023-08-14 14:02:00,SystemResetWarning,0841.8,5.00,000.00,030.0,028.8,000.0,038.5,031.6,19.5,0000.0,0003.72,0007.54,0003.30
2023-08-14 14:03:00,SystemResetWarning,0841.8,5.00,000.00,030.0,028.8,000.0,038.5,031.6,19.4,0000.0,0003.72,0007.56,0003.29
2023-08-14 14:04:00,SystemResetWarning,0841.8,5.00,000.00,030.0,028.8,000.0,038.6,031.6,19.5,0000.0,0003.71,0007.38,0003.28
2023-08-14 14:05:00,SystemResetWarning,0841.8,5.00,000.00,030.0,028.8,000.0,038.6,031.6,19.7,0000.0,0003.70,0007.38,0003.28
2023-08-14 14:06:00,SystemResetWarning,0841.8,5.00,000.00,030.0,028.8,000.0,038.6,031.6,19.6,0000.0,0003.66,0007.26,0003.26
2023-08-14 14:07:00,SystemResetWarning,0841.8,5.01,000.00,030.1,028.8,000.0,038.6,031.7,19.6,0000.0,0003.66,0007.28,0003.24
2023-08-14 14:08:00,SystemResetWarning,0841.8,4.99,000.00,030.1,028.9,000.0,038.6,031.7,19.5,0000.0,0003.65,0007.23,0003.22
2023-08-14 14:09:00,SystemResetWarning,0841.8,4.99,000.00,030.1,028.4,000.0,038.6,031.6,19.6,0000.0,0003.59,0006.23,0003.20
2023-08-14 14:10:00,SystemResetWarning,0841.8,5.00,000.00,030.0,026.4,000.0,038.4,031.2,19.6,0000.0,0003.56,0006.17,0003.19
2023-08-14 14:11:00,SystemResetWarning,0841.7,5.00,000.00,029.9,025.4,000.0,038.3,031.1,19.6,0000.0,0003.51,0006.11,0003.16
2023-08-14 14:12:00,SystemResetWarning,0841.7,5.02,000.00,029.8,025.6,000.0,038.3,030.9,19.8,0000.0,0003.47,0005.85,0003.13
2023-08-14 14:13:00,SystemResetWarning,0841.7,5.00,000.00,029.7,025.9,000.0,038.3,030.8,19.8,0000.0,0003.42,0006.98,0003.12
2023-08-14 14:14:00,SystemResetWarning,0841.7,5.00,000.00,029.7,026.3,000.0,038.3,030.9,19.9,0000.0,0003.36,0007.30,0003.10
2023-08-14 14:15:00,SystemResetWarning,0841.7,5.00,000.00,029.6,026.6,000.0,038.3,031.0,20.0,0000.0,0003.34,0007.69,0003.09
2023-08-14 14:16:00,SystemResetWarning,0841.7,5.00,000.00,029.6,027.0,000.0,038.3,031.0,20.1,0000.0,0003.29,0007.71,0003.05
2023-08-14 14:17:00,SystemResetWarning,0841.7,5.00,000.00,029.6,027.3,000.0,038.3,031.1,20.2,0000.0,0003.29,0009.07,0003.01
2023-08-14 14:18:00,SystemResetWarning,0841.7,4.99,000.00,029.6,027.5,000.0,038.3,031.1,20.4,0000.0,0003.25,0008.97,0002.98
2023-08-14 14:19:00,SystemResetWarning,0841.7,4.99,000.00,029.6,027.7,000.0,038.3,031.1,20.8,0000.0,0003.22,0008.89,0002.97
2023-08-14 14:20:00,SystemResetWarning,0841.7,5.00,000.00,029.6,027.8,000.0,038.3,031.2,20.6,0000.0,0003.20,0009.06,0002.95
2023-08-14 14:21:00,SystemResetWarning,0841.7,5.01,000.00,029.6,028.0,000.0,038.3,031.2,20.0,0000.0,0003.23,0009.66,0002.95
2023-08-14 14:22:00,SystemResetWarning,0841.7,5.00,000.00,029.7,028.1,000.0,038.3,031.2,20.3,0000.0,0003.25,0009.57,0002.95
2023-08-14 14:23:00,SystemResetWarning,0841.7,5.01,000.00,029.7,028.2,000.0,038.3,031.3,20.4,0000.0,0003.26,0009.65,0002.95
2023-08-14 14:24:00,SystemResetWarning,0841.7,5.00,000.00,029.7,028.3,000.0,038.3,031.3,20.1,0000.0,0003.24,0009.03,0002.94
2023-08-14 14:25:00,SystemResetWarning,0841.7,4.99,000.00,029.7,028.3,000.0,038.3,031.3,19.8,0000.0,0003.24,0008.67,0002.96
2023-08-14 14:26:00,SystemResetWarning,0841.7,5.00,000.00,029.7,028.4,000.0,038.3,031.3,20.0,0000.0,0003.25,0008.22,0002.95
2023-08-14 14:27:00,SystemResetWarning,0841.7,5.01,000.00,029.8,028.5,000.0,038.3,031.4,19.9,0000.0,0003.26,0008.21,0002.95
2023-08-14 14:28:00,SystemResetWarning,0841.7,5.01,000.00,029.8,028.5,000.0,038.3,031.4,20.0,0000.0,0003.25,0006.40,0002.95
2023-08-14 14:29:00,SystemResetWarning,0841.7,5.01,000.00,029.8,028.5,000.0,038.3,031.4,20.0,0000.0,0003.26,0006.58,0002.93
2023-08-14 14:30:00,SystemResetWarning,0841.7,5.00,000.00,029.8,028.6,000.0,038.3,031.4,20.2,0000.0,0003.25,0006.70,0002.89
2023-08-14 14:31:00,SystemResetWarning,0841.7,5.00,000.00,029.8,028.6,000.0,038.4,031.4,20.3,0000.0,0003.27,0007.05,0002.89
2023-08-14 14:32:00,SystemResetWarning,0841.7,5.00,000.00,029.9,028.6,000.0,038.4,031.5,20.5,0000.0,0003.25,0007.02,0002.88
2023-08-14 14:33:00,SystemResetWarning,0841.7,4.99,000.00,029.9,028.7,000.0,038.4,031.5,20.6,0000.0,0003.24,0007.64,0002.88
2023-08-14 14:34:00,SystemResetWarning,0841.7,4.99,000.00,029.9,028.7,000.0,038.4,031.5,20.3,0000.0,0003.25,0007.72,0002.87
2023-08-14 14:35:00,SystemResetWarning,0841.7,5.01,000.00,029.9,028.7,000.0,038.4,031.5,20.2,0000.0,0003.26,0007.68,0002.87
2023-08-14 14:36:00,SystemResetWarning,0841.8,5.00,000.00,029.9,028.5,000.0,038.4,031.5,20.3,0000.0,0003.27,0007.79,0002.86
2023-08-14 14:37:00,SystemResetWarning,0841.7,4.99,000.00,029.9,026.7,000.0,038.3,031.2,20.0,0000.0,0003.25,0007.77,0002.84
2023-08-14 14:38:00,SystemResetWarning,0841.7,5.01,000.00,029.8,025.4,000.0,038.1,031.0,20.0,0000.0,0003.25,0007.91,0002.84
2023-08-14 14:39:00,SystemResetWarning,0841.8,5.01,000.00,029.7,025.5,000.0,038.1,030.9,20.2,0000.0,0003.23,0007.89,0002.82
2023-08-14 14:40:00,SystemResetWarning,0841.7,4.99,000.00,029.6,025.8,000.0,038.1,030.8,20.9,0000.0,0003.23,0007.81,0002.83
2023-08-14 14:41:00,SystemResetWarning,0841.7,5.00,000.00,029.6,026.2,000.0,038.1,030.8,21.1,0000.0,0003.23,0007.69,0002.85
2023-08-14 14:42:00,SystemResetWarning,0841.7,5.01,000.00,029.5,026.6,000.0,038.1,030.9,21.2,0000.0,0003.21,0007.48,0002.84
2023-08-14 14:43:00,SystemResetWarning,0841.7,4.99,000.00,029.5,026.9,000.0,038.1,031.0,21.0,0000.0,0003.21,0007.02,0002.84
2023-08-14 14:44:00,SystemResetWarning,0841.7,5.00,000.00,029.5,027.2,000.0,038.1,031.0,20.7,0000.0,0003.20,0005.95,0002.85
2023-08-14 14:45:00,SystemResetWarning,0841.7,5.01,000.00,029.5,027.4,000.0,038.1,031.0,20.7,0000.0,0003.17,0005.66,0002.85
2023-08-14 14:46:00,SystemResetWarning,0841.7,5.00,000.00,029.5,027.6,000.0,038.1,031.1,20.5,0000.0,0003.17,0005.75,0002.85
2023-08-14 14:47:00,SystemResetWarning,0841.7,5.00,000.00,029.5,027.8,000.0,038.1,031.1,20.9,0000.0,0003.17,0005.73,0002.84
2023-08-14 14:48:00,SystemResetWarning,0841.7,5.00,000.00,029.6,027.9,000.0,038.1,031.1,21.0,0000.0,0003.18,0005.83,0002.84
2023-08-14 14:49:00,SystemResetWarning,0841.7,4.99,000.00,029.6,028.1,000.0,038.1,031.2,20.9,0000.0,0003.16,0005.87,0002.83
2023-08-14 14:50:00,SystemResetWarning,0841.7,4.99,000.00,029.6,028.2,000.0,038.1,031.2,20.8,0000.0,0003.19,0006.32,0002.84
2023-08-14 14:51:00,SystemResetWarning,0841.8,4.99,000.00,029.6,028.2,000.0,038.2,031.2,20.5,0000.0,0003.21,0006.26,0002.84
2023-08-14 14:52:00,SystemResetWarning,0841.7,5.00,000.00,029.6,028.3,000.0,038.2,031.3,20.5,0000.0,0003.19,0006.15,0002.84
2023-08-14 14:53:00,SystemResetWarning,0841.7,5.01,000.00,029.7,028.4,000.0,038.2,031.3,20.7,0000.0,0003.19,0006.10,0002.85
2023-08-14 14:54:00,SystemResetWarning,0841.8,5.00,000.00,029.7,028.4,000.0,038.2,031.3,20.6,0000.0,0003.20,0005.57,0002.87
2023-08-14 14:55:00,SystemResetWarning,0841.7,5.00,000.00,029.7,028.5,000.0,038.2,031.4,20.1,0000.0,0003.22,0006.90,0002.88
2023-08-14 14:56:00,SystemResetWarning,0841.8,5.00,000.00,029.7,028.6,000.0,038.2,031.4,20.1,0000.0,0003.25,0007.19,0002.90
2023-08-14 14:57:00,SystemResetWarning,0841.8,4.99,000.00,029.8,028.6,000.0,038.3,031.4,20.1,0000.0,0003.27,0007.12,0002.91
2023-08-14 14:58:00,SystemResetWarning,0841.8,4.99,000.00,029.8,028.6,000.0,038.3,031.4,20.3,0000.0,0003.28,0007.07,0002.93
2023-08-14 14:59:00,SystemResetWarning,0841.8,5.00,000.00,029.8,028.6,000.0,038.3,031.4,19.9,0000.0,0003.30,0006.99,0002.95
